Date String (YYYY-MM-DD hh:mm:ss) UTC,Instrument flags,Ambient pressure (hPa),Sample flow (lpm),Bypass flow (lpm),Sample temperature (°C),Ambient temperature (°C),ASC tube jacket temperature (°C),LED temperature (°C),Box temperature (°C),Sample RH (%),Span deviation,Mass concentration (μg/m³),Mass concentration (μg/m³),Mass concentration (μg/m³)
DateTimeUTC,F1_M11,P_M11,Q1_M11,Q2_M11,T1_M11,T2_M11,T3_M11,T4_M11,T5_M11,U1_M11,ZSPAN_M11,X2_M11,X0_M11,X1_M11
2022-02-26 01:00:00,,0829.7,5.00,0.00,22.7,22.0,00.0,31.9,24.4,07.4,0001.4,0017.63,0025.89,0016.51
2022-02-26 01:01:00,,0829.7,5.00,0.00,22.7,22.0,00.0,31.9,24.4,07.5,0001.6,0017.61,0025.78,0016.50
2022-02-26 01:02:00,,0829.7,4.98,0.00,22.7,22.0,00.0,31.9,24.4,07.4,0001.6,0017.59,0025.56,0016.48
2022-02-26 01:03:00,,0829.8,5.00,0.00,22.7,22.0,00.0,31.9,24.4,07.3,0001.4,0017.52,0025.46,0016.49
2022-02-26 01:04:00,,0829.8,5.01,0.00,22.7,22.0,00.0,31.9,24.4,07.3,0001.3,0017.45,0025.43,0016.45
2022-02-26 01:05:00,,0829.8,5.00,0.00,22.7,22.0,00.0,31.9,24.4,07.2,0001.1,0017.42,0025.51,0016.41
2022-02-26 01:06:00,,0829.8,5.01,0.00,22.7,22.0,00.0,31.8,24.4,07.3,0001.2,0017.39,0025.32,0016.37
2022-02-26 01:07:00,,0829.8,5.00,0.00,22.7,21.9,00.0,31.8,24.4,07.5,0001.2,0017.43,0025.16,0016.38
2022-02-26 01:08:00,,0829.8,5.00,0.00,22.7,21.9,00.0,31.8,24.4,07.6,0001.3,0017.53,0024.85,0016.45
2022-02-26 01:09:00,,0829.8,5.00,0.00,22.7,21.8,00.0,31.8,24.4,07.6,0001.1,0017.60,0024.03,0016.52
2022-02-26 01:10:00,,0829.8,5.00,0.00,22.7,21.8,00.0,31.8,24.3,07.7,0000.9,0017.59,0023.95,0016.54
2022-02-26 01:11:00,,0829.8,5.00,0.00,22.6,21.8,00.0,31.8,24.3,07.7,0000.9,0017.65,0024.28,0016.58
2022-02-26 01:12:00,,0829.9,5.00,0.00,22.6,21.8,00.0,31.8,24.3,07.6,0000.8,0017.78,0024.55,0016.68
2022-02-26 01:13:00,,0829.8,5.00,0.00,22.7,21.9,00.0,31.8,24.4,07.6,0000.7,0017.92,0024.71,0016.84
2022-02-26 01:14:00,,0829.9,4.99,0.00,22.7,21.9,00.0,31.8,24.4,07.6,0000.9,0018.12,0025.98,0017.04
2022-02-26 01:15:00,,0829.9,5.01,0.00,22.7,21.9,00.0,31.7,24.4,07.6,0001.1,0018.35,0026.68,0017.23
2022-02-26 01:16:00,,0830.0,5.00,0.00,22.7,21.9,00.0,31.7,24.5,07.6,0001.2,0018.48,0026.76,0017.41
2022-02-26 01:17:00,,0830.0,5.00,0.00,22.7,21.9,00.0,31.7,24.5,07.5,0001.0,0018.61,0027.00,0017.57
2022-02-26 01:18:00,,0830.0,5.00,0.00,22.7,22.0,00.0,31.7,24.5,07.5,0000.8,0018.72,0027.09,0017.71
2022-02-26 01:19:00,,0830.0,5.01,0.00,22.7,22.0,00.0,31.7,24.5,07.5,0000.7,0018.83,0028.49,0017.80
2022-02-26 01:20:00,,0830.0,5.00,0.00,22.7,21.9,00.0,31.7,24.5,07.5,0000.8,0018.94,0028.91,0017.91
2022-02-26 01:21:00,,0830.0,5.00,0.00,22.7,21.9,00.0,31.7,24.5,07.5,0001.0,0019.09,0029.51,0018.01
2022-02-26 01:22:00,,0830.1,5.00,0.00,22.7,21.9,00.0,31.7,24.5,07.5,0000.7,0019.22,0030.49,0018.15
2022-02-26 01:23:00,,0830.0,5.00,0.00,22.7,21.9,00.0,31.7,24.5,07.5,0000.5,0019.21,0031.27,0018.21
2022-02-26 01:24:00,,0830.0,5.00,0.00,22.7,21.9,00.0,31.7,24.5,07.5,0000.5,0019.23,0031.23,0018.26
2022-02-26 01:25:00,,0830.1,4.99,0.00,22.7,21.9,00.0,31.7,24.4,07.5,0000.3,0019.21,0030.93,0018.26
2022-02-26 01:26:00,,0830.1,5.01,0.00,22.7,21.9,00.0,31.7,24.3,07.6,0000.2,0019.16,0030.93,0018.23
2022-02-26 01:27:00,,0830.1,5.00,0.00,22.6,21.8,00.0,31.7,24.3,07.6,0000.3,0019.16,0031.56,0018.20
2022-02-26 01:28:00,,0830.1,5.00,0.00,22.6,21.8,00.0,31.7,24.4,07.6,0000.5,0019.20,0031.50,0018.22
2022-02-26 01:29:00,,0830.0,5.00,0.00,22.6,21.8,00.0,31.7,24.4,07.6,0000.5,0019.19,0031.69,0018.21
2022-02-26 01:30:00,,0830.1,5.00,0.00,22.6,21.8,00.0,31.7,24.4,07.6,0000.4,0019.17,0031.12,0018.20
2022-02-26 01:31:00,,0830.1,5.00,0.00,22.6,21.8,00.0,31.7,24.4,07.6,0000.3,0019.16,0030.81,0018.20
2022-02-26 01:32:00,,0830.1,5.00,0.00,22.6,21.7,00.0,31.7,24.4,07.5,0000.2,0019.07,0030.54,0018.18
2022-02-26 01:33:00,,0830.0,5.00,0.00,22.6,21.7,00.0,31.7,24.4,07.4,0000.3,0019.08,0029.75,0018.20
2022-02-26 01:34:00,,0830.0,5.00,0.00,22.6,21.8,00.0,31.7,24.3,07.4,0000.5,0019.13,0028.57,0018.24
2022-02-26 01:35:00,,0830.1,5.00,0.00,22.6,21.8,00.0,31.7,24.4,07.3,0000.4,0019.19,0028.92,0018.25
2022-02-26 01:36:00,,0830.1,4.99,0.00,22.6,21.8,00.0,31.6,24.4,07.3,0000.5,0019.17,0029.08,0018.20
2022-02-26 01:37:00,,0830.1,5.00,0.00,22.6,21.8,00.0,31.6,24.4,07.3,0000.6,0019.14,0027.81,0018.18
2022-02-26 01:38:00,,0830.1,5.00,0.00,22.6,21.8,00.0,31.6,24.4,07.3,0000.4,0019.15,0027.13,0018.22
2022-02-26 01:39:00,,0830.1,5.00,0.00,22.6,21.8,00.0,31.6,24.3,07.3,0000.3,0019.20,0027.37,0018.26
2022-02-26 01:40:00,,0830.1,5.01,0.00,22.6,21.7,00.0,31.6,24.3,07.3,0000.7,0019.21,0027.47,0018.26
2022-02-26 01:41:00,,0830.1,5.00,0.00,22.6,21.7,00.0,31.6,24.3,07.3,0000.8,0019.18,0026.93,0018.27
2022-02-26 01:42:00,,0830.1,4.99,0.00,22.5,21.7,00.0,31.6,24.2,07.3,0000.7,0019.13,0026.51,0018.24
2022-02-26 01:43:00,,0830.2,4.99,0.00,22.5,21.7,00.0,31.6,24.2,07.3,0001.1,0019.18,0026.26,0018.26
2022-02-26 01:44:00,,0830.2,5.00,0.00,22.5,21.7,00.0,31.6,24.2,07.3,0001.1,0019.13,0026.22,0018.24
2022-02-26 01:45:00,,0830.2,5.00,0.00,22.5,21.6,00.0,31.6,24.2,07.3,0001.1,0019.05,0026.18,0018.15
2022-02-26 01:46:00,,0830.2,5.00,0.00,22.4,21.6,00.0,31.6,24.2,07.3,0001.1,0018.98,0025.81,0018.10
2022-02-26 01:47:00,,0830.2,5.00,0.00,22.5,21.6,00.0,31.6,24.2,07.3,0000.8,0018.94,0025.55,0018.06
2022-02-26 01:48:00,,0830.2,5.01,0.00,22.4,21.5,00.0,31.5,24.2,07.3,0000.5,0018.91,0025.54,0018.01
2022-02-26 01:49:00,,0830.2,5.00,0.00,22.4,21.5,00.0,31.5,24.2,07.4,0000.7,0018.87,0026.06,0017.96
2022-02-26 01:50:00,,0830.3,5.00,0.00,22.4,21.5,00.0,31.5,24.2,07.4,0000.7,0018.82,0025.97,0017.92
2022-02-26 01:51:00,,0830.2,5.00,0.00,22.4,21.5,00.0,31.5,24.2,07.3,0000.3,0018.82,0025.74,0017.94
2022-02-26 01:52:00,,0830.2,5.00,0.00,22.4,21.5,00.0,31.5,24.2,07.3,0000.4,0018.88,0025.98,0017.96
2022-02-26 01:53:00,,0830.3,5.00,0.00,22.4,21.5,00.0,31.5,24.2,07.3,0000.3,0018.88,0026.94,0017.91
2022-02-26 01:54:00,,0830.3,5.00,0.00,22.4,21.5,00.0,31.5,24.2,07.3,0000.1,0018.74,0027.08,0017.75
2022-02-26 01:55:00,,0830.2,5.00,0.00,22.4,21.5,00.0,31.5,24.2,07.3,0000.0,0018.64,0026.88,0017.64
2022-02-26 01:56:00,,0830.3,5.00,0.00,22.4,21.5,00.0,31.5,24.2,07.3,0000.1,0018.56,0026.83,0017.57
2022-02-26 01:57:00,,0830.2,5.00,0.00,22.4,21.5,00.0,31.4,24.2,07.3,0000.3,0018.39,0026.79,0017.42
2022-02-26 01:58:00,,0830.2,5.00,0.00,22.4,21.5,00.0,31.4,24.2,07.3,0000.4,0018.13,0027.92,0017.18
2022-02-26 01:59:00,,0830.2,5.00,0.00,22.4,21.5,00.0,31.4,24.2,07.3,0000.7,0017.85,0027.86,0016.91
